2023/08/19 00:00:00, 0.2,23.5
2023/08/19 00:10:00, 0.2,23.6
2023/08/19 00:20:00, 0.2,23.4
2023/08/19 00:30:00, 0.2,23.4
2023/08/19 00:40:00, 0.2,23.5
2023/08/19 00:50:00, 0.2,23.7
2023/08/19 01:00:00, 0.2,23.6
2023/08/19 01:10:00, 0.2,23.3
2023/08/19 01:20:00, 0.2,23.5
2023/08/19 01:30:00, 0.2,23.4
2023/08/19 01:40:00, 0.2,23.5
2023/08/19 01:50:00, 0.2,23.3
2023/08/19 02:00:00, 0.2,23.5
2023/08/19 02:10:00, 0.2,23.4
2023/08/19 02:20:00, 0.2,23.6
2023/08/19 02:30:00, 0.2,23.9
2023/08/19 02:40:00, 0.2,23.6
2023/08/19 02:50:00, 0.2,23.6
2023/08/19 03:00:00, 0.2,23.4
2023/08/19 03:10:00, 0.2,23.5
2023/08/19 03:20:00, 0.2,23.6
2023/08/19 03:30:00, 0.2,23.6
2023/08/19 03:40:00, 0.2,23.3
2023/08/19 03:50:00, 0.2,23.3
2023/08/19 04:00:00, 0.3,23.4
2023/08/19 04:10:00, 0.3,23.3
2023/08/19 04:20:00, 0.3,23.3
2023/08/19 04:30:00, 0.3,23.2
2023/08/19 04:40:00, 0.2,23.5
2023/08/19 04:50:00, 0.3,23.3
2023/08/19 05:00:00, 0.3,23.4
2023/08/19 05:10:00, 0.3,23.6
2023/08/19 05:20:00, 0.3,23.3
2023/08/19 05:30:00, 0.3,23.3
2023/08/19 05:40:00, 0.3,23.3
2023/08/19 05:50:00, 0.3,23.3
2023/08/19 06:00:00, 0.3,23.5
2023/08/19 06:10:00, 0.3,23.6
2023/08/19 06:20:00, 0.3,23.7
2023/08/19 06:30:00, 0.3,24.1
2023/08/19 06:40:00, 0.3,24.0
2023/08/19 06:50:00, 8.5,25.0
2023/08/19 07:00:00, 9.0,25.2
2023/08/19 07:10:00, 9.0,25.6
2023/08/19 07:20:00, 8.8,26.1
2023/08/19 07:30:00, 8.6,26.7
2023/08/19 07:40:00, 9.0,26.8
2023/08/19 07:50:00, 9.3,27.0
2023/08/19 08:00:00, 9.4,27.3
2023/08/19 08:10:00, 9.5,27.9
2023/08/19 08:20:00, 9.7,28.5
2023/08/19 08:30:00,10.1,29.1
2023/08/19 08:40:00, 9.8,29.9
2023/08/19 08:50:00, 9.7,30.4
2023/08/19 09:00:00, 9.5,31.3
2023/08/19 09:10:00, 9.2,31.3
2023/08/19 09:20:00, 9.2,31.3
2023/08/19 09:30:00, 9.5,33.9
2023/08/19 09:40:00, 9.4,33.3
2023/08/19 09:50:00, 9.5,34.0
2023/08/19 10:00:00, 2.2,34.7
2023/08/19 10:10:00, 0.5,34.3
2023/08/19 10:20:00, 0.5,34.1
2023/08/19 10:30:00, 0.5,33.3
2023/08/19 10:40:00, 0.5,32.8
2023/08/19 10:50:00, 0.4,33.1
2023/08/19 11:00:00, 0.5,33.4
2023/08/19 11:10:00, 0.5,33.8
2023/08/19 11:20:00, 0.5,34.4
2023/08/19 11:30:00, 6.7,34.7
2023/08/19 11:40:00, 7.3,34.8
2023/08/19 11:50:00, 6.9,35.1
2023/08/19 12:00:00, 6.8,35.6
2023/08/19 12:10:00, 6.8,33.2
2023/08/19 12:20:00, 6.7,33.1
2023/08/19 12:30:00, 7.0,32.5
2023/08/19 12:40:00, 7.3,31.8
2023/08/19 12:50:00, 7.3,32.7
2023/08/19 13:00:00, 7.5,32.3
2023/08/19 13:10:00, 7.4,32.8
2023/08/19 13:20:00, 7.5,34.8
2023/08/19 13:30:00, 7.7,34.4
2023/08/19 13:40:00, 7.5,34.8
2023/08/19 13:50:00, 7.2,35.1
2023/08/19 14:00:00, 7.1,35.5
2023/08/19 14:10:00, 7.2,35.3
2023/08/19 14:20:00, 7.3,35.5
2023/08/19 14:30:00, 7.1,35.6
2023/08/19 14:40:00, 7.1,34.9
2023/08/19 14:50:00, 7.2,35.7
2023/08/19 15:00:00, 7.3,35.6
2023/08/19 15:10:00, 7.2,35.4
2023/08/19 15:20:00, 6.9,35.7
2023/08/19 15:30:00, 6.7,35.6
2023/08/19 15:40:00, 6.6,34.5
2023/08/19 15:50:00, 6.6,34.0
2023/08/19 16:00:00, 6.8,33.2
2023/08/19 16:10:00, 6.8,34.4
2023/08/19 16:20:00, 6.8,35.3
2023/08/19 16:30:00, 6.9,36.7
2023/08/19 16:40:00, 7.0,37.8
2023/08/19 16:50:00, 7.1,37.6
2023/08/19 17:00:00, 7.2,36.1
2023/08/19 17:10:00, 7.4,32.5
2023/08/19 17:20:00, 7.5,31.5
2023/08/19 17:30:00, 8.1,30.8
2023/08/19 17:40:00, 8.2,30.8
2023/08/19 17:50:00, 8.1,30.0
2023/08/19 18:00:00, 7.6,29.8
2023/08/19 18:10:00, 7.2,28.8
2023/08/19 18:20:00, 6.3,28.5
2023/08/19 18:30:00, 5.9,28.1
2023/08/19 18:40:00, 5.8,27.6
2023/08/19 18:50:00, 5.3,27.2
2023/08/19 19:00:00, 4.6,26.8
2023/08/19 19:10:00, 3.1,26.3
2023/08/19 19:20:00, 0.4,26.2
2023/08/19 19:30:00, 0.3,26.1
2023/08/19 19:40:00, 0.3,25.7
2023/08/19 19:50:00, 0.3,25.5
2023/08/19 20:00:00, 0.2,25.6
2023/08/19 20:10:00, 0.2,25.5
2023/08/19 20:20:00, 0.3,25.4
2023/08/19 20:30:00, 0.3,25.4
2023/08/19 20:40:00, 0.3,25.3
2023/08/19 20:50:00, 0.3,25.3
2023/08/19 21:00:00, 0.3,25.1
2023/08/19 21:10:00, 0.3,25.2
2023/08/19 21:20:00, 0.3,25.3
2023/08/19 21:30:00, 0.3,24.9
2023/08/19 21:40:00, 0.3,25.1
2023/08/19 21:50:00, 0.3,25.1
2023/08/19 22:00:00, 0.3,25.1
2023/08/19 22:10:00, 0.3,25.0
2023/08/19 22:20:00, 0.3,25.1
2023/08/19 22:30:00, 0.3,24.9
2023/08/19 22:40:00, 0.3,24.9
2023/08/19 22:50:00, 0.3,24.9
2023/08/19 23:00:00, 0.3,24.7
2023/08/19 23:10:00, 0.2,24.6
2023/08/19 23:20:00, 0.2,24.3
2023/08/19 23:30:00, 0.2,24.4
2023/08/19 23:40:00, 0.2,24.5
2023/08/19 23:50:00, 0.3,24.3
